• In France
  • List of Countries
  • For 7 days
  • Water Temperature
  • Satellite Maps
  • Weather Map
  • Weather Widgets
  • user-avatar
    Login

    Hourly Weather San Isidro

    Today, 18 December, Monday

    Time Temperature Precipitation Wind Pressure Humidity
    00:00 +22°C° 0 mm 1 mps 697 mmHg 88%
    01:00 +22°C° 0 mm 1 mps 696 mmHg 87%
    02:00 +22°C° 0 mm 1 mps 696 mmHg 87%
    03:00 +22°C° 0 mm 1 mps 696 mmHg 86%
    04:00 +22°C° 0 mm 1 mps 696 mmHg 86%
    05:00 +22°C° 0 mm 1 mps 696 mmHg 86%
    06:00 +22°C° 0 mm 1 mps 697 mmHg 87%
    07:00 +23°C° 0.1 mm 1 mps 697 mmHg 83%
    08:00 +25°C° 0.1 mm 1 mps 698 mmHg 80%
    09:00 +26°C° 0.1 mm 1 mps 699 mmHg 77%
    10:00 +27°C° 0.2 mm 2 mps 698 mmHg 73%
    11:00 +28°C° 0.2 mm 2 mps 698 mmHg 70%
    12:00 +29°C° 0.2 mm 2 mps 698 mmHg 66%
    13:00 +29°C° 0.1 mm 2 mps 698 mmHg 65%
    14:00 +28°C° 0.1 mm 2 mps 697 mmHg 64%
    15:00 +28°C° 0.1 mm 2 mps 697 mmHg 64%
    16:00 +26°C° 0 mm 2 mps 697 mmHg 73%
    17:00 +25°C° 0 mm 2 mps 697 mmHg 82%
    18:00 +23°C° 0 mm 1 mps 697 mmHg 92%
    19:00 +22°C° 0 mm 1 mps 697 mmHg 89%
    20:00 +22°C° 0 mm 1 mps 698 mmHg 87%
    21:00 +20°C° 0 mm 2 mps 698 mmHg 85%
    22:00 +20°C° 0 mm 2 mps 698 mmHg 83%
    23:00 +20°C° 0 mm 2 mps 698 mmHg 81%

    Tomorrow, 19 December, Tuesday

    Time Temperature Precipitation Wind Pressure Humidity
    00:00 +20°C° 0 mm 2 mps 698 mmHg 79%
    01:00 +20°C° 0.1 mm 2 mps 697 mmHg 80%
    02:00 +20°C° 0.1 mm 2 mps 697 mmHg 82%
    03:00 +21°C° 0.1 mm 2 mps 697 mmHg 84%
    04:00 +21°C° 0 mm 2 mps 697 mmHg 85%
    05:00 +21°C° 0 mm 2 mps 697 mmHg 86%
    06:00 +21°C° 0 mm 2 mps 698 mmHg 87%
    07:00 +24°C° 0 mm 2 mps 698 mmHg 79%
    08:00 +26°C° 0 mm 2 mps 699 mmHg 70%
    09:00 +28°C° 0 mm 2 mps 700 mmHg 61%
    10:00 +29°C° 0 mm 2 mps 699 mmHg 59%
    11:00 +30°C° 0 mm 2 mps 699 mmHg 57%
    12:00 +31°C° 0 mm 2 mps 698 mmHg 54%
    13:00 +30°C° 0.1 mm 2 mps 698 mmHg 59%
    14:00 +29°C° 0.1 mm 2 mps 697 mmHg 63%
    15:00 +28°C° 0.1 mm 2 mps 696 mmHg 68%
    16:00 +26°C° 0.1 mm 2 mps 696 mmHg 76%
    17:00 +25°C° 0.1 mm 1 mps 696 mmHg 84%
    18:00 +23°C° 0.1 mm 1 mps 697 mmHg 93%
    19:00 +23°C° 0 mm 1 mps 697 mmHg 90%
    20:00 +22°C° 0 mm 1 mps 698 mmHg 87%
    21:00 +22°C° 0 mm 1 mps 698 mmHg 85%
    22:00 +22°C° 0.1 mm 1 mps 698 mmHg 85%
    23:00 +22°C° 0.1 mm 1 mps 698 mmHg 86%

    Day after tomorrow, 20 December, Wednesday

    Time Temperature Precipitation Wind Pressure Humidity
    00:00 +22°C° 0.1 mm 1 mps 698 mmHg 86%
    01:00 +22°C° 0.1 mm 1 mps 697 mmHg 87%
    02:00 +22°C° 0.1 mm 1 mps 697 mmHg 88%
    03:00 +22°C° 0.1 mm 1 mps 697 mmHg 90%
    04:00 +22°C° 0.1 mm 1 mps 697 mmHg 90%
    05:00 +22°C° 0.1 mm 1 mps 697 mmHg 90%
    06:00 +22°C° 0.1 mm 1 mps 697 mmHg 91%
    07:00 +24°C° 0.1 mm 1 mps 698 mmHg 86%
    08:00 +25°C° 0.1 mm 1 mps 698 mmHg 80%
    09:00 +27°C° 0.1 mm 1 mps 699 mmHg 75%
    10:00 +28°C° 0 mm 2 mps 699 mmHg 72%
    11:00 +28°C° 0 mm 2 mps 698 mmHg 68%
    12:00 +29°C° 0 mm 2 mps 698 mmHg 65%
    13:00 +29°C° 0.1 mm 2 mps 697 mmHg 68%
    14:00 +28°C° 0.1 mm 2 mps 696 mmHg 71%
    15:00 +27°C° 0.1 mm 2 mps 696 mmHg 74%
    16:00 +26°C° 0.1 mm 2 mps 696 mmHg 80%
    17:00 +25°C° 0.1 mm 1 mps 696 mmHg 86%
    18:00 +23°C° 0.1 mm 1 mps 696 mmHg 92%
    19:00 +23°C° 0 mm 1 mps 696 mmHg 91%
    20:00 +23°C° 0 mm 1 mps 697 mmHg 90%
    21:00 +23°C° 0 mm 1 mps 697 mmHg 89%
    22:00 +22°C° 0.1 mm 1 mps 697 mmHg 89%
    23:00 +22°C° 0.1 mm 1 mps 697 mmHg 89%

    21 December, Thursday

    Time Temperature Precipitation Wind Pressure Humidity
    00:00 +22°C° 0.1 mm 1 mps 696 mmHg 89%
    01:00 +22°C° 0.3 mm 1 mps 696 mmHg 89%
    02:00 +22°C° 0.3 mm 1 mps 696 mmHg 90%
    03:00 +22°C° 0.3 mm 1 mps 696 mmHg 90%
    04:00 +22°C° 0.3 mm 1 mps 696 mmHg 90%
    05:00 +22°C° 0.3 mm 1 mps 696 mmHg 89%
    06:00 +22°C° 0.3 mm 1 mps 697 mmHg 89%
    07:00 +24°C° 0.2 mm 1 mps 697 mmHg 84%
    08:00 +25°C° 0.2 mm 1 mps 698 mmHg 79%
    09:00 +27°C° 0.2 mm 1 mps 699 mmHg 75%
    10:00 +27°C° 0.3 mm 1 mps 698 mmHg 74%
    11:00 +27°C° 0.3 mm 2 mps 698 mmHg 73%
    12:00 +28°C° 0.3 mm 2 mps 697 mmHg 72%
    13:00 +28°C° 0.6 mm 2 mps 697 mmHg 73%
    14:00 +27°C° 0.6 mm 2 mps 696 mmHg 73%
    15:00 +27°C° 0.6 mm 2 mps 695 mmHg 74%
    16:00 +26°C° 0.3 mm 2 mps 696 mmHg 79%
    17:00 +24°C° 0.3 mm 2 mps 696 mmHg 84%
    18:00 +23°C° 0.3 mm 1 mps 696 mmHg 89%
    19:00 +22°C° 0.1 mm 1 mps 696 mmHg 86%
    20:00 +22°C° 0.1 mm 1 mps 697 mmHg 83%
    21:00 +21°C° 0.1 mm 1 mps 697 mmHg 80%
    22:00 +21°C° 0.1 mm 1 mps 697 mmHg 81%
    23:00 +21°C° 0.1 mm 1 mps 697 mmHg 81%

    22 December, Friday

    Time Temperature Precipitation Wind Pressure Humidity
    00:00 +21°C° 0.1 mm 1 mps 697 mmHg 82%
    01:00 +21°C° 0.1 mm 1 mps 696 mmHg 82%
    02:00 +21°C° 0.1 mm 1 mps 696 mmHg 83%
    03:00 +21°C° 0.1 mm 1 mps 696 mmHg 83%
    04:00 +21°C° 0 mm 1 mps 696 mmHg 83%
    05:00 +21°C° 0 mm 1 mps 697 mmHg 84%
    06:00 +21°C° 0 mm 1 mps 697 mmHg 84%
    07:00 +24°C° 0 mm 1 mps 698 mmHg 76%
    08:00 +26°C° 0 mm 1 mps 698 mmHg 67%
    09:00 +28°C° 0 mm 1 mps 699 mmHg 59%
    10:00 +29°C° 0 mm 2 mps 698 mmHg 57%
    11:00 +30°C° 0 mm 2 mps 698 mmHg 55%
    12:00 +31°C° 0 mm 2 mps 698 mmHg 53%
    13:00 +30°C° 0.2 mm 2 mps 697 mmHg 57%
    14:00 +29°C° 0.2 mm 2 mps 697 mmHg 61%
    15:00 +28°C° 0.2 mm 2 mps 696 mmHg 65%
    16:00 +26°C° 0.1 mm 2 mps 697 mmHg 74%
    17:00 +25°C° 0.1 mm 1 mps 697 mmHg 83%
    18:00 +23°C° 0.1 mm 1 mps 697 mmHg 92%
    19:00 +22°C° 0 mm 1 mps 697 mmHg 89%
    20:00 +22°C° 0 mm 1 mps 698 mmHg 85%
    21:00 +22°C° 0 mm 1 mps 698 mmHg 82%
    22:00 +22°C° 0.1 mm 1 mps 698 mmHg 82%
    23:00 +21°C° 0.1 mm 1 mps 697 mmHg 83%

    23 December, Saturday

    Time Temperature Precipitation Wind Pressure Humidity
    00:00 +21°C° 0.1 mm 1 mps 697 mmHg 83%
    01:00 +21°C° 0 mm 1 mps 697 mmHg 84%
    02:00 +22°C° 0 mm 1 mps 697 mmHg 85%
    03:00 +22°C° 0 mm 1 mps 697 mmHg 86%
    04:00 +22°C° 0 mm 1 mps 697 mmHg 86%
    05:00 +22°C° 0 mm 1 mps 697 mmHg 86%
    06:00 +22°C° 0 mm 1 mps 698 mmHg 87%
    07:00 +24°C° 0 mm 2 mps 698 mmHg 79%
    08:00 +26°C° 0 mm 2 mps 699 mmHg 70%
    09:00 +28°C° 0 mm 2 mps 699 mmHg 62%
    10:00 +29°C° 0 mm 2 mps 699 mmHg 59%
    11:00 +30°C° 0 mm 2 mps 698 mmHg 56%
    12:00 +31°C° 0 mm 2 mps 698 mmHg 53%
    13:00 +30°C° 0 mm 2 mps 697 mmHg 55%
    14:00 +29°C° 0 mm 2 mps 697 mmHg 57%
    15:00 +29°C° 0 mm 2 mps 696 mmHg 60%
    16:00 +27°C° 0 mm 2 mps 696 mmHg 69%
    17:00 +25°C° 0 mm 2 mps 696 mmHg 78%
    18:00 +22°C° 0 mm 1 mps 697 mmHg 87%
    19:00 +21°C° 0.1 mm 2 mps 697 mmHg 84%
    20:00 +21°C° 0.1 mm 2 mps 697 mmHg 81%
    21:00 +21°C° 0.1 mm 2 mps 698 mmHg 78%
    22:00 +21°C° 0 mm 2 mps 697 mmHg 80%
    23:00 +20°C° 0 mm 2 mps 697 mmHg 81%
    Show more